TimeEST,TemperatureF,Dew PointF,Humidity,Sea Level PressureIn,VisibilityMPH,Wind Direction,Wind SpeedMPH,Gust SpeedMPH,PrecipitationIn,Events,Conditions,WindDirDegrees,DateUTC
12:35 AM,51.8,51.8,100,29.98,0.2,Calm,Calm,-,N/A,,Overcast,0,2013-01-14 05:35:00
12:55 AM,51.8,50.0,94,29.98,0.2,Calm,Calm,-,N/A,,Overcast,0,2013-01-14 05:55:00
1:15 AM,51.8,50.0,94,29.98,1.0,Calm,Calm,-,N/A,,Mostly Cloudy,0,2013-01-14 06:15:00
1:35 AM,51.8,51.8,100,29.98,4.0,Calm,Calm,-,N/A,,Partly Cloudy,0,2013-01-14 06:35:00
1:55 AM,50.0,48.2,94,29.99,0.8,Calm,Calm,-,N/A,,Mostly Cloudy,0,2013-01-14 06:55:00
2:15 AM,51.8,51.8,100,30.00,5.0,Calm,Calm,-,N/A,,Clear,0,2013-01-14 07:15:00
2:35 AM,57.2,57.2,100,30.00,10.0,SSW,4.6,-,N/A,,Partly Cloudy,210,2013-01-14 07:35:00
2:55 AM,60.8,60.8,100,29.99,10.0,South,3.5,-,N/A,,Scattered Clouds,190,2013-01-14 07:55:00
3:15 AM,59.0,59.0,100,29.98,10.0,South,5.8,-,N/A,,Mostly Cloudy,170,2013-01-14 08:15:00
3:35 AM,60.8,60.8,100,29.96,10.0,South,9.2,-,N/A,,Overcast,180,2013-01-14 08:35:00
3:55 AM,62.6,60.8,94,29.96,10.0,South,6.9,-,N/A,,Overcast,170,2013-01-14 08:55:00
4:15 AM,62.6,60.8,94,29.96,10.0,WNW,3.5,-,N/A,,Overcast,290,2013-01-14 09:15:00
4:35 AM,60.8,60.8,100,29.98,10.0,Calm,Calm,-,N/A,,Mostly Cloudy,0,2013-01-14 09:35:00
5:15 AM,60.8,60.8,100,29.97,10.0,South,5.8,-,N/A,,Overcast,180,2013-01-14 10:15:00
5:35 AM,60.8,60.8,100,29.98,10.0,Calm,Calm,-,N/A,,Scattered Clouds,0,2013-01-14 10:35:00
5:55 AM,57.2,57.2,100,29.99,10.0,Calm,Calm,-,N/A,,Mostly Cloudy,0,2013-01-14 10:55:00
6:15 AM,55.4,55.4,100,30.00,8.0,Calm,Calm,-,N/A,,Mostly Cloudy,0,2013-01-14 11:15:00
6:35 AM,55.4,53.6,94,30.01,3.0,Calm,Calm,-,N/A,,Partly Cloudy,0,2013-01-14 11:35:00
6:55 AM,55.4,55.4,100,30.02,5.0,SSW,3.5,-,N/A,,Clear,200,2013-01-14 11:55:00
7:15 AM,57.2,57.2,100,30.03,10.0,SSW,5.8,-,N/A,,Mostly Cloudy,210,2013-01-14 12:15:00
7:35 AM,59.0,59.0,100,30.04,10.0,South,3.5,-,N/A,,Mostly Cloudy,180,2013-01-14 12:35:00
8:15 AM,60.8,60.8,100,30.10,9.0,NNW,10.4,19.6,N/A,,Overcast,340,2013-01-14 13:15:00
8:35 AM,57.2,55.4,94,30.10,10.0,North,13.8,-,N/A,,Overcast,350,2013-01-14 13:35:00
8:55 AM,57.2,53.6,88,30.12,10.0,North,10.4,17.3,N/A,,Overcast,360,2013-01-14 13:55:00
9:15 AM,57.2,53.6,88,30.13,10.0,North,12.7,19.6,N/A,,Overcast,350,2013-01-14 14:15:00
9:35 AM,57.2,51.8,82,30.14,0.5,North,10.4,-,N/A,,Overcast,360,2013-01-14 14:35:00
9:55 AM,57.2,50.0,77,30.15,10.0,NNW,12.7,20.7,N/A,,Overcast,340,2013-01-14 14:55:00
10:15 AM,57.2,48.2,72,30.17,10.0,NNW,8.1,-,N/A,,Overcast,330,2013-01-14 15:15:00
10:35 AM,57.2,48.2,72,30.17,10.0,North,9.2,20.7,N/A,,Overcast,350,2013-01-14 15:35:00
10:45 AM,57.2,48.2,72,30.16,10.0,North,12.7,16.1,N/A,,Overcast,350,2013-01-14 15:45:00
10:55 AM,57.2,48.2,72,30.16,10.0,North,13.8,17.3,N/A,,Overcast,350,2013-01-14 15:55:00
11:15 AM,55.4,46.4,72,30.16,10.0,North,15.0,-,N/A,,Overcast,360,2013-01-14 16:15:00
11:35 AM,55.4,46.4,72,30.16,10.0,North,11.5,17.3,N/A,,Overcast,350,2013-01-14 16:35:00
11:55 AM,55.4,44.6,67,30.15,10.0,North,12.7,-,N/A,,Overcast,350,2013-01-14 16:55:00
12:15 PM,55.4,44.6,67,30.15,10.0,North,11.5,-,N/A,,Overcast,350,2013-01-14 17:15:00
12:35 PM,55.4,44.6,67,30.14,10.0,North,11.5,19.6,N/A,,Overcast,360,2013-01-14 17:35:00
12:45 PM,55.4,44.6,67,30.15,10.0,North,13.8,17.3,N/A,,Overcast,10,2013-01-14 17:45:00
12:55 PM,53.6,44.6,72,30.16,10.0,North,10.4,17.3,N/A,,Overcast,360,2013-01-14 17:55:00
1:15 PM,53.6,42.8,67,30.15,10.0,North,12.7,20.7,N/A,,Overcast,10,2013-01-14 18:15:00
1:35 PM,53.6,42.8,67,30.14,10.0,North,11.5,19.6,N/A,,Overcast,10,2013-01-14 18:35:00
1:55 PM,53.6,42.8,67,30.16,10.0,North,15.0,-,N/A,,Overcast,360,2013-01-14 18:55:00
2:15 PM,51.8,42.8,71,30.16,10.0,North,11.5,-,N/A,,Overcast,10,2013-01-14 19:15:00
2:35 PM,51.8,41.0,67,30.16,10.0,North,12.7,-,N/A,,Overcast,10,2013-01-14 19:35:00
2:55 PM,51.8,39.2,62,30.18,10.0,North,15.0,-,N/A,,Overcast,360,2013-01-14 19:55:00
3:15 PM,51.8,39.2,62,30.20,10.0,North,10.4,21.9,N/A,,Overcast,350,2013-01-14 20:15:00
3:35 PM,51.8,41.0,67,30.21,10.0,North,13.8,-,N/A,,Overcast,360,2013-01-14 20:35:00
3:55 PM,51.8,39.2,62,30.20,10.0,North,5.8,-,N/A,,Overcast,10,2013-01-14 20:55:00
4:15 PM,51.8,39.2,62,30.20,10.0,NNE,8.1,-,N/A,,Overcast,20,2013-01-14 21:15:00
4:35 PM,51.8,37.4,58,30.20,10.0,North,6.9,-,N/A,,Overcast,10,2013-01-14 21:35:00
4:50 PM,51.8,37.4,58,30.22,10.0,North,6.9,-,N/A,,Overcast,360,2013-01-14 21:50:00
4:55 PM,51.8,37.4,58,30.22,10.0,North,6.9,-,N/A,,Overcast,360,2013-01-14 21:55:00
5:15 PM,51.8,37.4,58,30.21,10.0,North,9.2,-,N/A,,Overcast,360,2013-01-14 22:15:00
5:35 PM,50.0,37.4,62,30.22,10.0,North,6.9,-,N/A,,Overcast,10,2013-01-14 22:35:00
5:50 PM,50.0,37.4,62,30.21,10.0,NNE,6.9,-,N/A,,Overcast,30,2013-01-14 22:50:00
5:55 PM,50.0,37.4,62,30.22,10.0,North,6.9,-,N/A,,Overcast,360,2013-01-14 22:55:00
6:15 PM,50.0,37.4,62,30.23,10.0,North,6.9,-,N/A,,Overcast,10,2013-01-14 23:15:00
6:35 PM,50.0,35.6,58,30.25,10.0,NNW,9.2,-,N/A,,Overcast,340,2013-01-14 23:35:00
6:55 PM,48.2,35.6,62,30.27,10.0,NNW,11.5,-,N/A,,Overcast,340,2013-01-14 23:55:00
7:15 PM,48.2,35.6,62,30.27,10.0,North,8.1,-,N/A,,Overcast,350,2013-01-15 00:15:00
7:35 PM,46.4,39.2,76,30.28,10.0,NNW,9.2,-,N/A,,Overcast,340,2013-01-15 00:35:00
7:55 PM,46.4,39.2,76,30.29,10.0,NNW,10.4,-,N/A,,Overcast,340,2013-01-15 00:55:00
8:15 PM,44.6,41.0,87,30.29,10.0,North,8.1,-,0.01,,Overcast,350,2013-01-15 01:15:00
8:35 PM,44.6,41.0,87,30.29,10.0,North,11.5,-,0.01,,Overcast,350,2013-01-15 01:35:00
8:55 PM,44.6,42.8,93,30.29,10.0,North,9.2,-,0.01,,Overcast,350,2013-01-15 01:55:00
9:15 PM,44.6,41.0,87,30.28,10.0,North,11.5,-,N/A,,Overcast,360,2013-01-15 02:15:00
9:35 PM,42.8,41.0,93,30.29,10.0,NNW,12.7,-,N/A,,Overcast,340,2013-01-15 02:35:00
9:55 PM,42.8,39.2,87,30.31,10.0,NNW,10.4,-,N/A,,Overcast,340,2013-01-15 02:55:00
10:15 PM,41.0,39.2,93,30.32,10.0,North,12.7,-,N/A,,Overcast,350,2013-01-15 03:15:00
10:35 PM,41.0,39.2,93,30.31,10.0,North,13.8,18.4,N/A,,Overcast,350,2013-01-15 03:35:00
11:15 PM,39.2,39.2,100,30.31,10.0,North,9.2,-,N/A,,Overcast,350,2013-01-15 04:15:00
11:35 PM,39.2,39.2,100,30.31,10.0,North,10.4,-,N/A,,Overcast,350,2013-01-15 04:35:00
11:55 PM,39.2,37.4,93,30.31,10.0,North,8.1,-,N/A,,Overcast,350,2013-01-15 04:55:00